FW6835 Weather Reports


Display with metric or nautical units.
time (UTC)temp
F
wind
direction
speed
MPH
gust
MPH
rain 1hr
in
rain 24hr
in
rain mn
in
humidity
%
barometer
mb
20260505111559 70 205 1.0 7.0 0.00 0.00 0.00 65 1007.6
20260505111059 70 215 0.0 7.0 0.00 0.00 0.00 64 1007.6
20260505110558 70 243 4.0 9.0 0.00 0.00 0.00 64 1007.7
20260505102051 68 78 1.0 6.0 0.00 0.00 0.00 67 1008.0
20260505101555 68 273 0.0 4.0 0.00 0.00 0.00 66 1008.0
20260505101048 67 83 0.0 4.0 0.00 0.00 0.00 66 1008.0
20260505100548 67 272 1.0 5.0 0.00 0.00 0.00 67 1008.0
20260505100047 67 67 1.0 5.0 0.00 0.00 0.00 68 1007.9
20260505095547 67 90 3.0 5.0 0.00 0.00 0.00 67 1008.1
20260505095046 66 76 0.0 3.0 0.00 0.00 0.00 68 1008.2
20260505094545 66 240 1.0 3.0 0.00 0.00 0.00 69 1008.2
20260505094045 66 244 1.0 7.0 0.00 0.00 0.00 71 1008.3
20260505093544 66 230 2.0 7.0 0.00 0.00 0.00 71 1008.4
20260505093045 66 242 2.0 5.0 0.00 0.00 0.00 70 1008.4
20260505092543 66 240 0.0 7.0 0.00 0.00 0.00 70 1008.4
20260505092044 66 309 3.0 7.0 0.00 0.00 0.00 69 1008.3
20260505091543 66 208 1.0 5.0 0.00 0.00 0.00 70 1008.4
20260505091043 65 289 1.0 8.0 0.00 0.00 0.00 73 1008.5
20260505090539 64 254 3.0 9.0 0.00 0.00 0.00 73 1008.4
20260505090054 64 226 3.0 9.0 0.00 0.00 0.00 75 1008.6
20260505085538 64 244 3.0 8.0 0.00 0.00 0.00 77 1008.5
20260505085037 64 161 1.0 7.0 0.00 0.00 0.00 75 1008.6
20260505084540 63 195 3.0 9.0 0.00 0.00 0.00 75 1008.7
20260505084036 63 265 4.0 9.0 0.00 0.00 0.00 75 1008.7
20260505083533 63 272 3.0 7.0 0.00 0.00 0.00 75 1008.6
20260505083036 63 222 2.0 5.0 0.00 0.00 0.00 76 1008.8
20260505082532 62 299 2.0 7.0 0.00 0.00 0.00 76 1008.7
20260505082031 62 270 1.0 7.0 0.00 0.00 0.00 77 1008.8
20260505081535 61 236 0.0 5.0 0.00 0.00 0.00 80 1008.7
20260505081034 61 189 2.0 5.0 0.00 0.00 0.00 77 1008.7
20260505080530 62 209 0.0 7.0 0.00 0.00 0.00 78 1008.8
20260505080030 62 237 3.0 7.0 0.00 0.00 0.00 75 1008.8
20260505075532 62 230 1.0 4.0 0.00 0.00 0.00 79 1008.8
20260505075028 61 155 1.0 5.0 0.00 0.00 0.00 76 1008.7
20260505074527 61 192 1.0 5.0 0.00 0.00 0.00 78 1008.7
20260505074027 61 189 2.0 5.0 0.00 0.00 0.00 77 1008.9
20260505073527 61 150 2.0 5.0 0.00 0.00 0.00 76 1008.9
20260505073035 61 171 1.0 4.0 0.00 0.00 0.00 77 1008.9
20260505072524 61 236 1.0 4.0 0.00 0.00 0.00 82 1009.0
20260505072024 60 173 0.0 4.0 0.00 0.00 0.00 81 1008.9
20260505071524 59 168 0.0 3.0 0.00 0.00 0.00 81 1009.0
20260505071025 59 168 1.0 3.0 0.00 0.00 0.00 83 1008.9
20260505070525 58 167 0.0 0.0 0.00 0.00 0.00 84 1008.9
20260505070022 57 167 0.0 0.0 0.00 0.00 0.00 84 1009.0
20260505065521 57 167 0.0 0.0 0.00 0.00 0.00 85 1009.2
20260505065021 56 167 0.0 0.0 0.00 0.00 0.00 85 1009.1
20260505064524 56 167 0.0 0.0 0.00 0.00 0.00 86 1009.2
20260505064020 56 167 0.0 0.0 0.00 0.00 0.00 85 1009.3
20260505063519 56 230 0.0 0.0 0.00 0.00 0.00 86 1009.2
20260505063018 56 230 0.0 1.0 0.00 0.00 0.00 86 1009.2
20260505062523 56 230 0.0 7.0 0.00 0.00 0.00 85 1009.1
20260505062016 56 230 2.0 7.0 0.00 0.00 0.00 84 1009.2
20260505061516 56 196 0.0 3.0 0.00 0.00 0.00 84 1009.2
20260505061018 56 196 0.0 3.0 0.00 0.00 0.00 84 1009.3
20260505060516 56 178 0.0 2.0 0.00 0.00 0.00 83 1009.3
20260505060025 56 178 0.0 2.0 0.00 0.00 0.00 83 1009.3
20260505055514 57 178 0.0 2.0 0.00 0.00 0.00 84 1009.2
20260505055014 57 268 0.0 0.0 0.00 0.00 0.00 83 1009.2
20260505054525 57 360 0.0 0.0 0.00 0.00 0.00 85 1008.9
20260505054014 56 360 0.0 0.0 0.00 0.00 0.00 83 1008.9
20260505053512 56 360 0.0 0.0 0.00 0.00 0.00 83 1008.9
20260505053011 56 360 0.0 0.0 0.00 0.00 0.00 82 1008.9
20260505052510 55 360 0.0 0.0 0.00 0.00 0.00 82 1008.8
20260505052011 55 360 0.0 0.0 0.00 0.00 0.00 83 1009.0
20260505051509 55 360 0.0 0.0 0.00 0.00 0.00 82 1009.0
20260505051007 55 360 0.0 0.0 0.00 0.00 0.00 82 1008.9
20260505050508 55 360 0.0 0.0 0.00 0.00 0.00 81 1008.9
20260505041559 56 355 0.0 0.0 0.00 0.00 0.00 77 1008.8
20260505041059 56 355 0.0 0.0 0.00 0.00 0.00 77 1009.0
20260505040601 56 349 0.0 0.0 0.00 0.00 0.00 77 1008.9
20260505035556 56 349 0.0 0.0 0.00 0.00 0.00 78 1009.0
20260505035056 56 349 0.0 0.0 0.00 0.00 0.00 77 1008.9
20260505034555 56 349 0.0 0.0 0.00 0.00 0.00 78 1009.0
20260505034055 56 349 0.0 0.0 0.00 0.00 0.00 77 1009.1
20260505033555 57 349 0.0 0.0 0.00 0.00 0.00 77 1009.1
20260505033112 57 348 0.0 1.0 0.00 0.00 0.00 76 1009.0
20260505032554 57 348 0.0 1.0 0.00 0.00 0.00 76 1009.2
20260505032052 57 348 0.0 0.0 0.00 0.00 0.00 76 1009.2
20260505031553 57 348 0.0 0.0 0.00 0.00 0.00 75 1009.1
20260505031055 57 348 0.0 0.0 0.00 0.00 0.00 75 1009.2
20260505030555 57 348 0.0 0.0 0.00 0.00 0.00 75 1009.2
20260505030053 57 348 0.0 0.0 0.00 0.00 0.00 75 1009.2
20260505025552 57 348 0.0 1.0 0.00 0.00 0.00 76 1009.4
20260505025051 56 348 0.0 3.0 0.00 0.00 0.00 76 1009.4
20260505024552 56 338 0.0 1.0 0.00 0.00 0.00 76 1009.5
20260505024050 56 49 0.0 2.0 0.00 0.00 0.00 77 1009.5
20260505023550 56 50 0.0 2.0 0.00 0.00 0.00 77 1009.6
20260505023100 56 12 0.0 2.0 0.00 0.00 0.00 77 1009.6
20260505022552 56 12 0.0 3.0 0.00 0.00 0.00 77 1009.8
20260505022052 56 13 1.0 3.0 0.00 0.00 0.00 77 1009.9
20260505021548 56 49 0.0 3.0 0.00 0.00 0.00 76 1009.9
20260505021046 56 57 0.0 3.0 0.00 0.00 0.00 76 1009.9
20260505020545 57 60 0.0 2.0 0.00 0.00 0.00 74 1010.0
20260505020049 57 59 0.0 1.0 0.00 0.00 0.00 75 1010.0
20260505015543 57 59 0.0 0.0 0.00 0.00 0.00 74 1010.1
20260505015045 58 59 0.0 0.0 0.00 0.00 0.00 74 1010.1
20260505014541 58 59 0.0 0.0 0.00 0.00 0.00 73 1010.3
20260505014044 58 59 0.0 0.0 0.00 0.00 0.00 73 1010.3
20260505013541 58 59 0.0 0.0 0.00 0.00 0.00 73 1010.3
20260505013040 58 59 0.0 0.0 0.00 0.00 0.00 72 1010.3
20260505012540 58 59 0.0 2.0 0.00 0.00 0.00 72 1010.4
20260505012039 58 63 0.0 2.0 0.00 0.00 0.00 73 1010.4
20260505011539 58 64 0.0 2.0 0.00 0.00 0.00 73 1010.4
20260505011037 59 65 0.0 2.0 0.00 0.00 0.00 72 1010.5
20260505010537 59 65 0.0 0.0 0.00 0.00 0.00 71 1010.7
20260505010041 59 65 0.0 0.0 0.00 0.00 0.00 70 1010.6
20260505005536 60 65 0.0 0.0 0.00 0.00 0.00 69 1010.7
20260505005036 60 65 0.0 0.0 0.00 0.00 0.00 68 1010.8
20260505004545 60 65 0.0 0.0 0.00 0.00 0.00 69 1010.8
20260505004037 60 65 0.0 0.0 0.00 0.00 0.00 67 1010.8
20260505003535 60 65 0.0 0.0 0.00 0.00 0.00 68 1010.7
20260505003038 60 65 0.0 2.0 0.00 0.00 0.00 68 1010.8
20260505002535 60 71 0.0 4.0 0.00 0.00 0.00 67 1010.6
20260505002034 60 95 2.0 4.0 0.00 0.00 0.00 67 1010.8
20260505001534 60 36 0.0 3.0 0.00 0.00 0.00 69 1010.7
20260505001034 60 80 0.0 4.0 0.00 0.00 0.00 69 1010.8
20260505000534 60 84 1.0 5.0 0.00 0.00 0.00 70 1011.0
20260505000035 60 37 2.0 5.0 0.00 0.00 0.00 70 1011.0
20260504235533 60 42 1.0 4.0 0.00 0.00 0.00 70 1010.8
20260504235134 60 65 1.0 4.0 0.00 0.00 0.00 70 1011.0
20260504234543 60 55 1.0 6.0 0.00 0.00 0.00 70 1011.1
20260504234032 60 52 1.0 6.0 0.00 0.00 0.00 70 1011.1
20260504233530 60 69 1.0 5.0 0.00 0.00 0.00 70 1011.0
20260504233034 60 68 1.0 5.0 0.00 0.00 0.00 70 1011.2
20260504232530 60 65 2.0 5.0 0.00 0.00 0.00 70 1011.2
20260504232029 60 57 2.0 6.0 0.00 0.00 0.00 70 1011.3
20260504231539 60 37 1.0 4.0 0.00 0.00 0.00 70 1011.4
20260504231030 60 78 1.0 5.0 0.00 0.00 0.00 70 1011.4
20260504230528 60 350 0.0 5.0 0.00 0.00 0.00 71 1011.4
20260504230028 60 49 1.0 5.0 0.00 0.00 0.00 70 1011.4
20260504225528 60 333 1.0 4.0 0.00 0.00 0.00 71 1011.3
20260504225029 60 65 0.0 5.0 0.00 0.00 0.00 71 1011.5
20260504224527 60 68 1.0 6.0 0.00 0.00 0.00 71 1011.6
20260504224022 59 71 1.0 6.0 0.00 0.00 0.00 72 1011.7
20260504223521 59 74 2.0 5.0 0.00 0.00 0.00 72 1011.7
20260504223022 59 78 1.0 5.0 0.00 0.00 0.00 72 1011.7
20260504222523 59 74 1.0 6.0 0.00 0.00 0.00 73 1011.5
20260504222021 59 78 1.0 6.0 0.00 0.00 0.00 73 1011.7
20260504221520 59 61 2.0 5.0 0.00 0.00 0.00 72 1011.7
20260504221022 59 153 1.0 6.0 0.00 0.00 0.00 73 1012.0
20260504220518 59 74 1.0 6.0 0.00 0.00 0.00 73 1012.1
20260504220017 59 69 1.0 6.0 0.00 0.00 0.00 74 1012.2
20260504215516 58 109 1.0 4.0 0.00 0.00 0.00 75 1012.2
20260504215020 58 61 1.0 4.0 0.00 0.00 0.00 75 1012.3
20260504214518 58 63 2.0 3.0 0.00 0.00 0.00 76 1012.2
20260504214016 58 67 2.0 3.0 0.00 0.00 0.00 76 1012.3
20260504213521 58 79 1.0 3.0 0.00 0.00 0.00 76 1012.4
20260504213016 58 80 1.0 3.0 0.00 0.00 0.00 76 1012.6
20260504212516 58 69 1.0 3.0 0.00 0.00 0.00 76 1012.6
20260504212015 58 51 0.0 3.0 0.00 0.00 0.00 76 1012.5
20260504211516 58 64 0.0 3.0 0.00 0.00 0.00 76 1012.5
20260504211015 58 65 0.0 3.0 0.00 0.00 0.00 76 1012.6
20260504210518 58 65 1.0 3.0 0.00 0.00 0.00 76 1012.5
20260504210015 57 68 1.0 3.0 0.00 0.00 0.00 76 1012.7
20260504205517 57 68 0.0 2.0 0.00 0.00 0.00 77 1012.6
20260504205015 57 69 0.0 2.0 0.00 0.00 0.00 76 1012.6
20260504204530 58 69 0.0 1.0 0.00 0.00 0.00 77 1012.7
20260504204015 58 69 0.0 2.0 0.00 0.00 0.00 76 1012.6
20260504203515 58 69 0.0 2.0 0.00 0.00 0.00 76 1012.6
20260504203014 58 71 0.0 2.0 0.00 0.00 0.00 75 1012.6
20260504202514 58 71 0.0 2.0 0.00 0.00 0.00 75 1012.7
20260504202014 58 71 0.0 2.0 0.00 0.00 0.00 75 1012.5
20260504201513 59 71 0.0 2.0 0.00 0.00 0.00 75 1012.6
20260504201013 59 71 0.0 0.0 0.00 0.00 0.00 75 1012.5
20260504200516 59 71 0.0 3.0 0.00 0.00 0.00 75 1012.6
20260504200015 59 71 0.0 3.0 0.00 0.00 0.00 76 1012.5
20260504195512 59 69 0.0 2.0 0.00 0.00 0.00 76 1012.4
20260504195012 59 69 0.0 2.0 0.00 0.00 0.00 76 1012.4
20260504194512 59 70 0.0 1.0 0.00 0.00 0.00 76 1012.5
20260504194012 59 70 0.0 2.0 0.00 0.00 0.00 76 1012.4
20260504193513 59 69 0.0 2.0 0.00 0.00 0.00 76 1012.5
20260504193020 59 48 0.0 2.0 0.00 0.00 0.00 76 1012.5
20260504192511 59 257 0.0 1.0 0.00 0.00 0.00 77 1012.5
20260504192013 59 257 0.0 1.0 0.00 0.00 0.00 77 1012.5
20260504191511 59 241 0.0 0.0 0.00 0.00 0.00 77 1012.6
20260504191011 59 241 0.0 0.0 0.00 0.00 0.00 76 1012.5
20260504190510 59 241 0.0 1.0 0.00 0.00 0.00 76 1012.5
20260504190010 59 241 0.0 2.0 0.00 0.00 0.00 76 1012.4
20260504185511 60 241 0.0 2.0 0.00 0.00 0.00 76 1012.4
20260504185012 60 239 0.0 2.0 0.00 0.00 0.00 75 1012.4
20260504184510 60 238 0.0 1.0 0.00 0.00 0.00 75 1012.2
20260504184012 60 239 0.0 0.0 0.00 0.00 0.00 75 1012.3
20260504183510 61 239 0.0 0.0 0.00 0.00 0.00 74 1012.3
20260504183009 61 238 0.0 0.0 0.00 0.00 0.00 73 1012.3
20260504182508 62 238 0.0 0.0 0.00 0.00 0.00 73 1012.3
20260504182010 62 238 0.0 0.0 0.00 0.00 0.00 72 1012.1
20260504181510 63 238 0.0 0.0 0.00 0.00 0.00 71 1012.2
20260504181007 63 238 0.0 0.0 0.00 0.00 0.00 70 1012.1
20260504180509 63 238 0.0 0.0 0.00 0.00 0.00 70 1012.1
20260504180007 64 238 0.0 0.0 0.00 0.00 0.00 69 1012.2
20260504175506 64 238 0.0 0.0 0.00 0.00 0.00 69 1012.2
20260504175006 64 233 0.0 0.0 0.00 0.00 0.00 68 1012.1
20260504174506 65 233 0.0 0.0 0.00 0.00 0.00 68 1012.2
20260504174007 65 233 0.0 1.0 0.00 0.00 0.00 67 1012.0
20260504173506 65 232 0.0 2.0 0.00 0.00 0.00 66 1012.0
20260504173006 66 246 0.0 2.0 0.00 0.00 0.00 66 1012.1
20260504172504 66 265 0.0 2.0 0.00 0.00 0.00 65 1012.1
20260504172004 66 266 0.0 4.0 0.00 0.00 0.00 64 1012.1
20260504171516 67 22 0.0 4.0 0.00 0.00 0.00 64 1012.1
20260504171005 67 229 0.0 2.0 0.00 0.00 0.00 63 1012.0
20260504170503 67 292 0.0 1.0 0.00 0.00 0.00 63 1012.1
20260504151057 70 144 2.0 7.0 0.00 0.00 0.00 52 1012.2
20260504150600 70 186 2.0 7.0 0.00 0.00 0.00 51 1012.0
20260504141053 72 191 3.0 8.0 0.00 0.00 0.00 50 1012.5
20260504140552 71 239 2.0 7.0 0.00 0.00 0.00 54 1012.5
20260504130545 69 265 1.0 6.0 0.00 0.00 0.00 55 1013.0